Home > Weather > Tirana > Past weeks

Flag for Albania Past Weather in Tirana, Albania — Yesterday and Last 2 Weeks

Now
77 °F

Passing clouds.


Feels Like: 78 °F
Forecast: 68 / 92 °F
Wind: 3 mph from East

Location: Tirana Airport

Current Time: Jul 25, 2016 at 12:23:17 AM

Latest Report: Jul 24, 2016 at 11:50 PM


Visibility: N/A

Pressure: 29.89 "Hg

Humidity: 89%

Dew Point: 73 °F

Location of TiranaLocation

Past Weather in Tirana — Graph

°F

Tirana Temperature Yesterday

Maximum temperature yesterday: 95 °F (at 1:50 PM)
Minimum temperature yesterday: 68 °F (at 4:20 AM)
Average temperature yesterday: 81 °F

High & Low Weather Summary for the Past Weeks

 TemperatureHumidityPressure
High95 °F (Jul 10, 2:20 PM)94% (Jul 16, 3:50 AM)30.01 "Hg (Jul 16, 3:50 AM)
Low61 °F (Jul 16, 3:50 AM)25% (Jul 20, 11:50 AM)29.68 "Hg (Jul 15, 1:50 PM)
Average78 °F61%29.91 "Hg
* Reported Jul 9 11:20 PM — Jul 24 11:20 PM, Tirana, Weather by CustomWeather, © 2016

Note: Actual official high and low records may vary slightly from our data, if they occured in-between our weather recording intervals... More about our weather records

Advertising

Tirana Weather History for the Previous 24 Hours

Scroll right to see more
 ConditionsComfort  
Time TempWeatherWind HumidityBarometerVisibility
11:20 PM
Sun, Jul 24
77 °FPassing clouds.2 mph83%29.89 "HgN/A
10:50 PM77 °FPassing clouds.No wind83%29.89 "HgN/A
10:20 PM77 °FPassing clouds.No wind79%29.92 "HgN/A
9:50 PM77 °FClear.2 mph79%29.92 "Hg10 mi
9:20 PM79 °FClear.2 mph79%29.92 "Hg10 mi
8:50 PM77 °FSunny.2 mph79%29.89 "Hg10 mi
8:20 PM79 °FSunny.3 mph74%29.89 "Hg10 mi
7:50 PM79 °FSunny.6 mph70%29.89 "Hg10 mi
7:20 PM81 °FSunny.6 mph62%29.89 "Hg10 mi
6:50 PM82 °FSunny.7 mph62%29.89 "Hg10 mi
6:20 PM86 °FPassing clouds.9 mph55%29.89 "HgN/A
5:50 PM88 °FPassing clouds.7 mph52%29.89 "HgN/A
5:20 PM88 °FScattered clouds.9 mph49%29.89 "HgN/A
4:50 PM90 °FScattered clouds.10 mph49%29.89 "HgN/A
4:20 PM93 °FScattered clouds.12 mph49%29.89 "HgN/A
3:50 PM91 °FPassing clouds.10 mph52%29.89 "HgN/A
3:20 PM93 °FPassing clouds.10 mph53%29.89 "HgN/A
2:50 PM93 °FPassing clouds.8 mph44%29.89 "HgN/A
2:20 PM95 °FPassing clouds.9 mph44%29.92 "HgN/A
1:50 PM95 °FPassing clouds.8 mph44%29.92 "HgN/A
1:20 PM93 °FPassing clouds.7 mph44%29.92 "HgN/A
12:50 PM93 °FPassing clouds.6 mph44%29.92 "HgN/A
12:20 PM90 °FPassing clouds.3 mph49%29.92 "HgN/A
11:50 AM90 °FPassing clouds.5 mph49%29.92 "HgN/A
11:20 AM90 °FPassing clouds.3 mph46%29.95 "HgN/A
10:50 AM88 °FSunny.1 mph43%29.95 "Hg10 mi
10:20 AM90 °FSunny.2 mph46%29.95 "Hg10 mi
9:50 AM86 °FSunny.2 mph46%29.95 "Hg10 mi
9:20 AM84 °FSunny.2 mph55%29.95 "Hg10 mi
8:50 AM81 °FSunny.2 mph54%29.95 "Hg10 mi
8:20 AM79 °FSunny.2 mph54%29.95 "Hg10 mi
7:50 AM77 °FSunny.2 mph61%29.95 "Hg10 mi
7:20 AM75 °FSunny.2 mph69%29.95 "Hg10 mi
6:50 AM72 °FSunny.No wind73%29.95 "Hg10 mi
6:20 AM70 °FClear.No wind78%29.95 "Hg10 mi
5:50 AM70 °FClear.5 mph78%29.95 "Hg10 mi
5:20 AM70 °FClear.3 mph78%29.95 "Hg10 mi
4:50 AM70 °FClear.3 mph73%29.95 "Hg10 mi
4:20 AM68 °FClear.5 mph78%29.95 "Hg10 mi
3:50 AM70 °FClear.3 mph78%29.95 "Hg10 mi
3:20 AM70 °FClear.3 mph78%29.95 "Hg10 mi
2:50 AM70 °FClear.3 mph78%29.95 "Hg10 mi
2:20 AM72 °FClear.2 mph69%29.95 "Hg10 mi
1:50 AM72 °FClear.2 mph73%29.95 "Hg10 mi
1:20 AM72 °FClear.3 mph73%29.95 "Hg10 mi
12:50 AM72 °FClear.5 mph69%29.95 "Hg10 mi
12:20 AM72 °FClear.3 mph73%29.95 "Hg10 mi
Weather by CustomWeather, © 2016

See weather overviewHow to use our weather pages